Back to catalog

WESTFORD NEEDLES

LostPO
NORAD 3239·DEBRIS·🇺🇸 United States

Launched May 9, 1963 from Vandenberg Space Force Base

Loading…

Next Passes (next 24 hours)

TLE

StaleSource: Space-Track

Epoch: Nov 29, 2019, 10:53 UTC

1 03239U 63014BD  19333.45411021 -.00000305  00000-0 -14444+0 0  9994
2 03239  87.3469  62.6347 0025072  35.8756 324.3776  8.65338496786661

Track WESTFORD NEEDLES in real time with AllMySat

Download on the App Store